#timestamp,LO_Frequency,Hit,StdDev 
1523314815.6,286046998.6,N
1523314835.4,286046999.2,N
1523314855.3,286046998.4,N
1523314875.1,286047001.1,N
1523314895.8,286046998.8,N
1523314915.7,286047000.6,N
1523314935.5,286047001.0,N
1523314955.4,286046997.1,N
1523314975.2,286046998.8,N
1523314995.0,286046998.9,N
1523314995.9,286046998.9,N
1523315015.8,286046998.2,N
1523315035.6,286047002.8,N
1523315055.5,286047002.8,N
1523315075.3,286047002.2,N
1523315095.1,286046998.1,N
1523315115.9,286047000.2,N
1523315135.7,286047000.4,N
1523315155.5,286047001.2,N
1523315175.4,286047000.1,N
1523315195.2,286047002.3,N
1523315215.1,286047002.0,N
1523315216.0,286047002.0,N
1523315235.8,286047002.2,N
1523315255.6,286047000.9,N
1523315275.5,286046998.6,N
1523315295.3,286047000.5,N
1523315315.1,286047000.9,N
1523315335.9,286046999.7,N
1523315355.7,286047002.6,N
1523315375.6,286047001.8,N
1523315395.4,286047000.4,N
1523315415.2,286047002.4,N
1523315435.1,286047000.8,N
1523315436.0,286047000.8,N
1523315455.8,286047002.7,N
1523315475.6,286047002.4,N
1523315495.5,286047001.5,N
1523315515.3,286047004.3,N
1523315535.2,286047003.5,N
1523315555.9,286047003.1,N
1523315575.7,286047003.8,N
1523315595.6,286047003.9,N
1523315615.4,286047003.8,N
1523315635.2,286047002.3,N
1523315655.1,286047002.4,N
1523315656.0,286047002.4,N
1523315675.8,286047001.6,N
1523315695.7,286047000.9,N
1523315715.5,286047002.7,N
1523315735.3,286046999.8,N
1523315755.2,286047004.0,N
1523315775.0,286047005.4,Y
1523315775.9,286047005.4,P
1523315795.8,286047000.0,N
1523315815.6,286047000.7,N
1523315835.4,286047000.9,N
1523315855.3,286047000.6,N
1523315875.1,286047002.6,N
1523315895.8,286047001.0,N
1523315915.7,286047001.1,N
1523315935.5,286046999.9,N
1523315955.4,286047002.4,N
1523315975.2,286047001.6,N
1523315995.0,286047001.2,N
1523315995.9,286047001.2,N
1523316015.8,286047001.1,N
1523316035.6,286046999.5,N
1523316055.5,286046998.9,N
1523316075.3,286046999.0,N
1523316095.1,286046999.5,N
1523316115.9,286046998.7,N
1523316135.7,286046998.9,N
1523316155.5,286047000.4,N
1523316175.4,286047002.6,N
1523316195.2,286047002.5,N
1523316215.1,286047002.5,N
1523316216.0,286047002.5,N
1523316235.8,286046999.8,N
1523316255.6,286047000.9,N
1523316275.5,286047000.8,N
1523316295.3,286047000.2,N
1523316315.2,286046998.1,N
1523316335.9,286047001.0,N
1523316355.7,286046999.9,N
1523316375.6,286046999.7,N
1523316395.4,286047000.3,N
1523316415.2,286047000.7,N
1523316435.1,286046998.9,N
1523316436.0,286046998.9,N
1523316455.8,286046998.5,N
1523316475.7,286046999.2,N
1523316495.5,286046998.5,N
1523316515.3,286046998.4,N
1523316535.2,286046996.9,N
1523316555.9,286046999.0,N
1523316575.7,286047000.4,N
1523316595.6,286047000.7,N
1523316615.4,286046998.3,N
1523316635.3,286046998.4,N
1523316655.1,286046998.8,N
1523316656.0,286046998.8,N
1523316675.8,286046999.1,N
1523316695.7,286046999.4,N
1523316715.5,286046998.1,N
1523316735.3,286046998.3,N
1523316755.2,286046999.2,N
1523316775.0,286046998.9,N
1523316775.9,286046998.9,N
1523316795.8,286046999.6,N
1523316815.6,286046999.6,N
1523316835.4,286046997.2,Y
1523316855.3,286046999.1,P
1523316875.1,286047001.0,P
1523316895.8,286047001.0,N
1523316915.7,286047000.6,N
1523316935.5,286047000.7,N
1523316955.4,286047000.8,N
1523316975.2,286046999.4,N
1523316995.0,286047001.2,N
1523316995.9,286047001.2,N
1523317015.8,286047001.1,N
1523317035.6,286046998.5,N
1523317055.5,286047000.7,N
1523317075.3,286047000.5,N
1523317095.1,286046999.9,N
1523317115.9,286046998.1,N
1523317135.7,286046999.3,N
1523317155.5,286046998.3,N
1523317175.4,286046996.6,Y
1523317195.2,286046999.6,P
1523317215.1,286046996.8,P
1523317216.0,286046996.8,N
1523317235.8,286046997.3,N
1523317255.6,286046996.5,N
1523317275.5,286046999.4,N
1523317295.3,286046999.6,N
1523317315.1,286046997.0,N
1523317335.9,286046999.3,N
1523317355.7,286046997.2,N
1523317375.6,286046997.2,N
1523317395.4,286046997.8,N
1523317415.2,286046997.7,N
1523317435.1,286046995.2,Y
1523317436.0,286046995.2,P
1523317455.8,286046997.2,N
1523317475.7,286046997.5,N
1523317495.5,286046999.2,N
1523317515.3,286046999.6,N
1523317535.2,286046999.6,N
1523317555.0,286046996.6,N
1523317555.9,286046996.6,N
1523317575.7,286046998.8,N
1523317595.6,286046998.3,N
1523317615.4,286046999.4,N
1523317635.3,286046998.5,N
1523317655.1,286046999.0,N
1523317656.0,286046999.0,N
1523317675.8,286046999.2,N
1523317695.7,286046998.4,N
1523317715.5,286046998.2,N
1523317735.4,286046998.3,N
1523317755.2,286047000.6,N
1523317775.0,286047000.3,N
1523317775.9,286047000.3,N
1523317795.8,286046998.5,N
1523317815.6,286047001.1,N
1523317835.4,286046999.3,N
1523317855.3,286046998.8,N
1523317875.1,286046999.4,N
1523317895.9,286046997.0,N
1523317915.7,286046996.5,N
1523317935.5,286046996.6,N
1523317955.4,286046996.5,N
1523317975.2,286046998.9,N
1523317995.0,286046996.9,N
1523317995.9,286046996.9,N
1523318015.8,286046999.1,N
1523318035.6,286046996.6,N
1523318055.5,286046999.6,N
1523318075.3,286046998.5,N
1523318095.1,286046998.3,N
1523318115.9,286046996.9,N
1523318135.7,286046999.6,N
1523318155.5,286046999.1,N
1523318175.4,286046997.3,N
1523318195.2,286046996.6,N
1523318215.1,286046997.5,N
1523318216.0,286046997.5,N
1523318235.8,286046998.9,N
1523318255.6,286046996.5,N
1523318275.5,286046996.9,N
1523318295.3,286046997.5,N
1523318315.1,286046997.7,N
1523318335.9,286046997.9,N
1523318355.7,286046998.2,N
1523318375.6,286046996.8,N
1523318395.4,286046997.2,N
